View from above orbital plane
|
View from above satellite
|
Ground track
|
The orbit data is extracted from the following two-line orbital elements,
1 17590U 87027B 21018.88732472 -.00000192 00000-0 -72102-4 0 9999
2 17590 71.0023 267.7154 0002855 115.1712 244.9708 14.16792426749676
Epoch (UTC): | 18 January 2021 21:17:44 |
Eccentricity: | 0.0002855 |
inclination: | 71.0023° |
perigee height: | 834 km |
apogee height: | 838 km |
right ascension of ascending node: | 267.7154° |
argument of perigee: | 115.1712° |
revolutions per day: | 14.16792426 |
mean anomaly at epoch: | 244.9708° |
orbit number at epoch: | 74967 |
The dashed part of the orbit path shows where the satellite is in the earth's shadow,
|
|